Aérodrome :
LOGIN :

S'inscrire | Disclaimer

   EN    FR    IT 

 










Légende :    VFR   VFR Marginal   IFR   IFR Intensif   IFR Très Intensif
Visi : 
Plafond : 
>= 8 km
>= 3000ft
5 à 8 km
1000 à 3000 ft
1500m à 5 km
500 à 1000 ft
800 à 1500m
200 à 500 ft
< 800m
< 200 ft
Symboles :   Orages  Brouillard  Fortes neiges  Fortes précipitations  Vent > 20 kt
SIGMETs :   Divers  Orages  Givrage  Turbulence  Onde Orograph.  Cendres Volcan.







- Altitude de l'aérodrome : 1548 ft


LKNA - Náměšť Air Base

DERNIER METAR :
  • 200100Z 25005KT CAVOK M03/M04 Q1010 RMK BLU

METARs EXPIRÉS :
  • 200000Z 23006KT CAVOK M03/M04 Q1010
  • 192300Z 28006KT 9999 BKN027 M01/M03 Q1010 RMK BLU

TAF TAF LKNA
Valide du 20 à 00h jusqu'au 21 à 00h UTC


192300Z 2000/2100 28008KT 9999 SCT035
BECMG 2000/2002 VRB02KT
TEMPO 2006/2019 6000 SHSN BKN020
TEMPO 2013/2018 21012KT 1500 SHSN BKN015
Pas de NOTAMs connus pour ce terrain.



MET'MAP, la Météo Aéronautique d'un coup d'oeil ! - Copyright ORBIFLY Décembre 2007 - Disclaimer

ORBIFLY MET'MAP TEAM :

Programmation & Développement : Alexandra Zaïnal
Conception & Développement : Baudouin d'Aumeries
Co-Programmation & Développement : Marc-Olivier Méhu
Soutien technique & logistique : Manuel Goepfert

Contact : metmap@orbifly.com




SOURCES & CREDITS :

   NOAA